Regional Weather Roundup
Issued by NWS Upton, NY

Current Version | Previous Version | Text Only | Print | Product List | Glossary Off
Versions: 1 2 3 4 5 6 7 8 9 10 11 12 13 14 15 16 17 18 19 20 21 22 23 24 25 26 27 28 29 30
000 ASUS41 KOKX 240508 RWROKX REGIONAL WEATHER ROUNDUP NATIONAL WEATHER SERVICE NEW YORK NY 100 AM EDT TUE OCT 24 2017 NOTE: "FAIR" INDICATES FEW OR NO CLOUDS BELOW 12,000 FEET WITH NO SIGNIFICANT WEATHER AND/OR OBSTRUCTIONS TO VISIBILITY. NYZ071-072-176-178-NJZ106-104-240600- NEW YORK CITY METRO AREA CITY SKY/WX TMP DP RH WIND PRES REMARKS Central Park CLOUDY 69 65 86 S13G20 30.00F Bronx Bot Gard N/A 68 63 83 SE23 30.00R LaGuardia APRT CLOUDY 69 64 84 SE21 29.96F Kennedy INTL CLOUDY 67 66 97 SE18G26 29.98F Breezy Point N/A 66 N/A N/A SE15 N/A Newark/Liberty CLOUDY 68 66 93 SE12G18 29.97R Teterboro CLOUDY 71 66 84 S18G26 29.96S $$ NYZ177-179-078>081-240600- LONG ISLAND NEW YORK CITY SKY/WX TMP DP RH WIND PRES REMARKS Jones Beach N/A 66 N/A N/A SE14G21 N/A Matinecock PT N/A 70 N/A N/A S7G14 N/A Farmingdale CLOUDY 68 64 87 SE17G28 30.00F MacArthur/ISP CLOUDY 68 64 87 SE18G24 30.00F Shirley CLOUDY 70 65 84 SE13G21 30.02F Mt Sinai Harb N/A N/A N/A N/A S16G25 N/A Westhampton CLOUDY 67 62 84 SE13G23 30.05F East Hampton CLOUDY 65 63 91 SE13 30.05F Montauk N/A 66 64 93 VRB7 30.08F $$ NYZ052-065-067-240600- HUDSON VALLEY CITY SKY/WX TMP DP RH WIND PRES REMARKS White Plains CLOUDY 69 64 84 SE15G25 29.99F Larchmont Harb N/A 68 N/A N/A SE23G31 N/A Croton On Huds N/A 70 N/A N/A SE14G23 N/A Newburgh LGT RAIN 70 64 83 S13 29.97F Montgomery CLOUDY 70 63 78 S15G25 29.93F Poughkeepsie CLOUDY 70 63 78 SE8 29.95F Albany CLOUDY 69 60 73 S12 29.94F $$ NJZ001-105-106-008-010-013-015-019>022-104-240600- NEW JERSEY CITY SKY/WX TMP DP RH WIND PRES REMARKS Newark/Liberty CLOUDY 68 66 93 SE12G18 29.97R Teterboro CLOUDY 71 66 84 S18G26 29.96S Caldwell LGT RAIN 69 67 93 S12G26 29.97S Somerville CLOUDY 71 66 84 S8 29.93S Linden CLOUDY 69 65 85 S7 29.97R Perth Amboy N/A 68 N/A N/A SE12 N/A Sussex CLOUDY 70 64 81 S10G17 29.95R Andover N/A 70 64 81 VRB7G20 29.95R Trenton CLOUDY 70 66 87 S13G22 29.94R Millville CLOUDY 73 67 81 S10G23 29.93S Atlantic City CLOUDY 71 66 84 S15G26 29.96R Wrightstown CLOUDY 69 65 86 S8G18 29.93R Toms River N/A 69 67 93 S13G21 29.97R Belmar CLOUDY 68 66 93 SE14G24 29.98R $$ PAZ047>061-062-071-240600- EASTERN PENNSYLVANIA CITY SKY/WX TMP DP RH WIND PRES REMARKS Philadelphia CLOUDY 71 64 78 SE14G20 29.92F Allentown CLOUDY 71 63 75 SE14G29 29.90F Scranton CLOUDY 69 61 75 S12G28 29.85F $$ CTZ002-004>006-009-010-012-RIZ004-006-007-MAZ004-011-015-240600- SOUTHERN NEW ENGLAND IN CT CITY SKY/WX TMP DP RH WIND PRES REMARKS Bradley INTL CLOUDY 67 64 90 SE7 30.04F Hartford CLOUDY 69 64 84 S9G18 30.03F Danbury CLOUDY 69 64 84 SE6 30.01F Wtrbury/Oxford CLOUDY 65 63 93 SE10 30.03F Norwalk Harbor N/A 68 N/A N/A SE21G26 N/A Bridgeport CLOUDY 70 64 81 SE12 30.02F Meriden CLOUDY 68 62 81 SE9 30.03F New Haven CLOUDY 69 63 81 SE13 30.03F Chester FAIR 66 64 94 SE8 30.06F Groton CLOUDY 67 63 87 SE17 30.06F Wilimantic CLOUDY 68 64 87 SE7 30.07F IN RI CITY SKY/WX TMP DP RH WIND PRES REMARKS Providence CLOUDY 66 64 93 S8 30.11F Block Island MOCLDY 66 63 90 SE17 30.09F Westerly CLOUDY 67 63 87 SE13 30.09F IN MA CITY SKY/WX TMP DP RH WIND PRES REMARKS Boston CLOUDY 64 62 93 S7 30.12F Worcester CLOUDY 64 60 87 S14 30.10F Westfield CLOUDY 65 63 93 SE6 30.03F Provincetown PTCLDY 65 60 84 S13 30.15F Nantucket CLEAR 63 62 97 SE13 30.16F $$ ANZ330-335-338-340-345-350-353-355-240600- COASTAL MARINE OBSERVATIONS STATION/POSITION TIME SKY/WX TEMP WIND PRES VSBY WAVE AIR SEA DIR/SP/G HT/PER (UTC) (F) (DEG/KT/KT) (MB) (MI) (FT/S) NY HARB ENTRANCE 0350 67 65 140/ 17/ 21 1014.4 3/ 4 20 S FIRE ISLAND 0350 67 64 150/ 17/ 19 1016.2 4/ 4 GREAT SOUTH BAY 0430 67 63 130/ 16/ 19 N/A 15 E BARNEGAT LI NOT AVBL HUDSON CANYON 0350 67 65 150/ 16/ 19 1016.6 4/ 5 KINGS POINT 0442 69 66 200/ 18/ 24 1015.5 EXECUTION ROCKS 0430 70 150/ 16/ 23 N/A WESTERN LI SOUND 0419 71 160/ 17/ 25 N/A 1/ 2 CENTRAL LI SOUND 0415 69 160/ 17/ 19 N/A 2 EASTERN LI SOUND NOT AVBL ROBBINS REEF 0442 69 150/ 25/ 30 1014.8 $$ >>>>>>>>>>>>>>>>>>>>>>>>>>>> KEY <<<<<<<<<<<<<<<<<<<<<<<<<<< > < > SKY/WX - Sky Condition/Present Weather < > TMP - Temperature in Fahrenheit < > DP - Dew Point in Fahrenheit < > RH - Relative Humidity in Percent < > WIND - Direction (from) and Speed in MPH < > PRES - Mean Sea Level Pressure (inches of Hg) < > WCI - Wind Chill Index < > VSB - VISIBILITY IN MILES < > HX - HEAT INDEX < > TC - TEMPERATURE IN CELSIUS < > VRB - VARIABLE WIND DIRECTION < > < >>>>>>>>>>>>>>>>>>>>>>>>>>>> KEY <<<<<<<<<<<<<<<<<<<<<<<<<<<

USA.gov is the U.S. government's official web portal to all federal, state and local government web resources and services.